• Em Portugal
  • Lista de países
  • Para 7 dias
  • Temperatura da água
  • Mapas de satélite
  • Mapa do tempo
  • Widgets de tempo
  • user-avatar
    Iniciar Sessão

    Previsão horária em Ulegej

    Hoje, 16 Julho, Segunda-feira

    Tempo Temperatura Precipitação Vento Pressão Humidade
    00:00 +15°C° 0 mm 1 m/s 613 mmHg 74%
    01:00 +15°C° 0 mm 1 m/s 612 mmHg 75%
    02:00 +14°C° 0 mm 1 m/s 612 mmHg 77%
    03:00 +14°C° 0 mm 1 m/s 612 mmHg 78%
    04:00 +14°C° 0,1 mm 1 m/s 612 mmHg 76%
    05:00 +15°C° 0,1 mm 1 m/s 612 mmHg 73%
    06:00 +15°C° 0,1 mm 1 m/s 612 mmHg 71%
    07:00 +16°C° 0,1 mm 1 m/s 613 mmHg 67%
    08:00 +18°C° 0,1 mm 1 m/s 613 mmHg 62%
    09:00 +19°C° 0,1 mm 1 m/s 613 mmHg 58%
    10:00 +20°C° 0,1 mm 1 m/s 613 mmHg 54%
    11:00 +20°C° 0,1 mm 1 m/s 613 mmHg 51%
    12:00 +21°C° 0,1 mm 1 m/s 613 mmHg 47%
    13:00 +22°C° 0,3 mm 1 m/s 613 mmHg 45%
    14:00 +22°C° 0,3 mm 1 m/s 613 mmHg 44%
    15:00 +23°C° 0,3 mm 1 m/s 613 mmHg 42%
    16:00 +22°C° 0,3 mm 1 m/s 613 mmHg 43%
    17:00 +22°C° 0,3 mm 1 m/s 613 mmHg 44%
    18:00 +22°C° 0,3 mm 1 m/s 613 mmHg 45%
    19:00 +21°C° 0,2 mm 1 m/s 613 mmHg 49%
    20:00 +20°C° 0,2 mm 1 m/s 613 mmHg 53%
    21:00 +20°C° 0,2 mm 1 m/s 613 mmHg 58%
    22:00 +19°C° 0,2 mm 1 m/s 613 mmHg 60%
    23:00 +19°C° 0,2 mm 1 m/s 613 mmHg 63%

    Amanhã, 17 Julho, Terça-feira

    Tempo Temperatura Precipitação Vento Pressão Humidade
    00:00 +18°C° 0,2 mm 1 m/s 613 mmHg 66%
    01:00 +18°C° 0,3 mm 1 m/s 612 mmHg 68%
    02:00 +16°C° 0,3 mm 1 m/s 612 mmHg 70%
    03:00 +16°C° 0,3 mm 1 m/s 612 mmHg 72%
    04:00 +16°C° 0,2 mm 1 m/s 612 mmHg 72%
    05:00 +16°C° 0,2 mm 1 m/s 612 mmHg 72%
    06:00 +16°C° 0,2 mm 1 m/s 612 mmHg 71%
    07:00 +16°C° 0,2 mm 1 m/s 612 mmHg 67%
    08:00 +17°C° 0,2 mm 2 m/s 612 mmHg 63%
    09:00 +18°C° 0,2 mm 2 m/s 613 mmHg 60%
    10:00 +19°C° 0,2 mm 2 m/s 613 mmHg 55%
    11:00 +20°C° 0,2 mm 2 m/s 613 mmHg 51%
    12:00 +21°C° 0,2 mm 2 m/s 613 mmHg 46%
    13:00 +21°C° 0,2 mm 2 m/s 613 mmHg 45%
    14:00 +23°C° 0,2 mm 2 m/s 613 mmHg 43%
    15:00 +23°C° 0,2 mm 2 m/s 613 mmHg 42%
    16:00 +23°C° 0,3 mm 2 m/s 613 mmHg 42%
    17:00 +23°C° 0,3 mm 2 m/s 613 mmHg 43%
    18:00 +22°C° 0,3 mm 3 m/s 613 mmHg 43%
    19:00 +21°C° 0,2 mm 2 m/s 613 mmHg 48%
    20:00 +20°C° 0,2 mm 2 m/s 614 mmHg 53%
    21:00 +19°C° 0,2 mm 2 m/s 614 mmHg 58%
    22:00 +19°C° 0,2 mm 1 m/s 613 mmHg 62%
    23:00 +18°C° 0,2 mm 1 m/s 613 mmHg 65%

    Depois de amanhã, 18 Julho, Quarta-feira

    Tempo Temperatura Precipitação Vento Pressão Humidade
    00:00 +18°C° 0,2 mm 1 m/s 613 mmHg 68%
    01:00 +16°C° 0,1 mm 1 m/s 613 mmHg 71%
    02:00 +16°C° 0,1 mm 1 m/s 613 mmHg 73%
    03:00 +15°C° 0,1 mm 1 m/s 613 mmHg 75%
    04:00 +15°C° 0,1 mm 1 m/s 613 mmHg 74%
    05:00 +15°C° 0,1 mm 2 m/s 613 mmHg 73%
    06:00 +15°C° 0,1 mm 2 m/s 613 mmHg 71%
    07:00 +17°C° 0,1 mm 2 m/s 613 mmHg 65%
    08:00 +18°C° 0,1 mm 3 m/s 613 mmHg 59%
    09:00 +19°C° 0,1 mm 3 m/s 614 mmHg 52%
    10:00 +20°C° 0,2 mm 4 m/s 614 mmHg 47%
    11:00 +21°C° 0,2 mm 5 m/s 614 mmHg 42%
    12:00 +22°C° 0,2 mm 6 m/s 614 mmHg 37%
    13:00 +22°C° 0,1 mm 6 m/s 615 mmHg 34%
    14:00 +23°C° 0,1 mm 7 m/s 615 mmHg 31%
    15:00 +23°C° 0,1 mm 7 m/s 615 mmHg 28%
    16:00 +23°C° 0 mm 7 m/s 615 mmHg 29%
    17:00 +22°C° 0 mm 7 m/s 615 mmHg 29%
    18:00 +22°C° 0 mm 6 m/s 615 mmHg 29%
    19:00 +20°C° 0,1 mm 5 m/s 615 mmHg 33%
    20:00 +19°C° 0,1 mm 5 m/s 615 mmHg 38%
    21:00 +17°C° 0,1 mm 4 m/s 615 mmHg 42%
    22:00 +16°C° 0,1 mm 3 m/s 615 mmHg 45%
    23:00 +14°C° 0,1 mm 3 m/s 614 mmHg 48%

    19 Julho, Quinta-feira

    Tempo Temperatura Precipitação Vento Pressão Humidade
    00:00 +13°C° 0,1 mm 3 m/s 614 mmHg 51%
    01:00 +13°C° 0 mm 3 m/s 614 mmHg 54%
    02:00 +12°C° 0 mm 3 m/s 614 mmHg 57%
    03:00 +12°C° 0 mm 2 m/s 613 mmHg 60%
    04:00 +13°C° 0 mm 2 m/s 614 mmHg 60%
    05:00 +13°C° 0 mm 2 m/s 614 mmHg 60%
    06:00 +13°C° 0 mm 2 m/s 614 mmHg 60%
    07:00 +14°C° 0 mm 2 m/s 614 mmHg 56%
    08:00 +14°C° 0 mm 3 m/s 614 mmHg 53%
    09:00 +16°C° 0 mm 3 m/s 615 mmHg 49%
    10:00 +17°C° 0,1 mm 3 m/s 615 mmHg 45%
    11:00 +19°C° 0,1 mm 3 m/s 615 mmHg 42%
    12:00 +20°C° 0,1 mm 3 m/s 615 mmHg 38%
    13:00 +20°C° 0,1 mm 4 m/s 615 mmHg 37%
    14:00 +20°C° 0,1 mm 4 m/s 615 mmHg 36%
    15:00 +21°C° 0,1 mm 4 m/s 616 mmHg 35%
    16:00 +20°C° 0,3 mm 4 m/s 616 mmHg 39%
    17:00 +19°C° 0,3 mm 4 m/s 616 mmHg 44%
    18:00 +18°C° 0,3 mm 4 m/s 616 mmHg 48%
    19:00 +17°C° 0,4 mm 4 m/s 616 mmHg 52%
    20:00 +15°C° 0,4 mm 4 m/s 616 mmHg 57%
    21:00 +14°C° 0,4 mm 3 m/s 616 mmHg 61%
    22:00 +14°C° 0,2 mm 3 m/s 616 mmHg 63%
    23:00 +13°C° 0,2 mm 3 m/s 615 mmHg 65%

    20 Julho, Sexta-feira

    Tempo Temperatura Precipitação Vento Pressão Humidade
    00:00 +13°C° 0,2 mm 3 m/s 615 mmHg 66%
    01:00 +12°C° 0,1 mm 3 m/s 615 mmHg 67%
    02:00 +12°C° 0,1 mm 3 m/s 615 mmHg 68%
    03:00 +12°C° 0,1 mm 3 m/s 614 mmHg 69%
    04:00 +12°C° 0 mm 3 m/s 615 mmHg 68%
    05:00 +12°C° 0 mm 3 m/s 615 mmHg 67%
    06:00 +12°C° 0 mm 3 m/s 615 mmHg 67%
    07:00 +13°C° 0 mm 3 m/s 615 mmHg 63%
    08:00 +13°C° 0 mm 3 m/s 615 mmHg 59%
    09:00 +14°C° 0 mm 3 m/s 616 mmHg 55%
    10:00 +16°C° 0 mm 3 m/s 616 mmHg 52%
    11:00 +17°C° 0 mm 3 m/s 616 mmHg 50%
    12:00 +18°C° 0 mm 3 m/s 616 mmHg 47%
    13:00 +18°C° 0 mm 2 m/s 616 mmHg 45%
    14:00 +19°C° 0 mm 2 m/s 616 mmHg 43%
    15:00 +20°C° 0 mm 2 m/s 616 mmHg 41%
    16:00 +20°C° 0 mm 2 m/s 616 mmHg 41%
    17:00 +20°C° 0 mm 2 m/s 616 mmHg 41%
    18:00 +20°C° 0 mm 2 m/s 616 mmHg 40%
    19:00 +20°C° 0 mm 1 m/s 616 mmHg 44%
    20:00 +19°C° 0 mm 1 m/s 616 mmHg 48%
    21:00 +18°C° 0 mm 1 m/s 616 mmHg 52%
    22:00 +16°C° 0 mm 1 m/s 616 mmHg 54%
    23:00 +16°C° 0 mm 1 m/s 615 mmHg 56%

    21 Julho, Sábado

    Tempo Temperatura Precipitação Vento Pressão Humidade
    00:00 +15°C° 0 mm 1 m/s 615 mmHg 58%
    01:00 +14°C° 0 mm 1 m/s 615 mmHg 60%
    02:00 +14°C° 0 mm 1 m/s 615 mmHg 61%
    03:00 +13°C° 0 mm 1 m/s 614 mmHg 63%
    04:00 +14°C° 0 mm 1 m/s 615 mmHg 61%
    05:00 +15°C° 0 mm 1 m/s 615 mmHg 58%
    06:00 +15°C° 0 mm 1 m/s 615 mmHg 56%
    07:00 +16°C° 0 mm 1 m/s 615 mmHg 52%
    08:00 +18°C° 0 mm 1 m/s 616 mmHg 49%
    09:00 +19°C° 0 mm 2 m/s 616 mmHg 45%
    10:00 +20°C° 0 mm 2 m/s 616 mmHg 42%
    11:00 +21°C° 0 mm 2 m/s 616 mmHg 39%
    12:00 +22°C° 0 mm 3 m/s 616 mmHg 36%
    13:00 +22°C° 0 mm 3 m/s 616 mmHg 34%
    14:00 +24°C° 0 mm 3 m/s 616 mmHg 32%
    15:00 +23°C° 0 mm 4 m/s 616 mmHg 30%
    16:00 +23°C° 0,2 mm 4 m/s 616 mmHg 32%
    17:00 +23°C° 0,2 mm 4 m/s 616 mmHg 34%
    18:00 +22°C° 0,2 mm 5 m/s 615 mmHg 36%
    19:00 +21°C° 0,2 mm 4 m/s 615 mmHg 41%
    20:00 +19°C° 0,2 mm 3 m/s 615 mmHg 45%
    21:00 +18°C° 0,2 mm 2 m/s 615 mmHg 50%
    22:00 +17°C° 0 mm 2 m/s 615 mmHg 52%
    23:00 +16°C° 0 mm 2 m/s 614 mmHg 54%
    Mostrar mais